Regional Weather Roundup
Issued by NWS

Home | Current Version | Previous Version | Text Only | Print | Product List | Glossary On
Versions: 1 2 3 4 5 6 7 8 9 10 11 12 13 14 15 16 17 18 19 20 21 22 23 24 25 26 27 28 29 30 31 32 33 34 35 36 37 38 39 40 41 42 43 44 45 46 47 48 49 50
000
ASUS43 KDTX 240010
RWRMI
MICHIGAN HOURLY REGIONAL WEATHER ROUNDUP
NATIONAL WEATHER SERVICE DETROIT/PONTIAC MI
800 PM EDT MON OCT 23 2017

NOTE: "FAIR" INDICATES FEW OR NO CLOUDS BELOW 12,000 FEET WITH NO
SIGNIFICANT WEATHER AND/OR OBSTRUCTION TO VISIBILITY.

MIZ047>049-052>055-059>063-066>070-074>076-081>083-240100-
SOUTHEAST LOWER MICHIGAN

CITY           SKY/WX    TMP DP  RH WIND       PRES   REMARKS
ADRIAN         LGT RAIN  56  53  90 SW21G38   29.45F
6HR MIN TEMP:  56; 6HR MAX TEMP:  62; 6HR PCP:  0.01;

ALMA           HVY RAIN  52  51  95 NW16G23   29.42F
ANN ARBOR      CLOUDY    60  58  92 SE18G28   29.42F
BAD AXE        LGT RAIN  62  60  93 SE14G21   29.44F
6HR MIN TEMP:  61; 6HR MAX TEMP:  64;

CARO           LGT RAIN  62  59  92 SE14G21   29.39F
DETROIT CITY   CLOUDY    61  59  93 S14       29.46F
6HR MIN TEMP:  61; 6HR MAX TEMP:  65; 6HR PCP:  0.22;

DETROIT        CLOUDY    61  58  90 S18G26    29.47F
6HR MIN TEMP:  61; 6HR MAX TEMP:  64; 6HR PCP:  0.38;

FLINT          CLOUDY    59  58  96 S16G22    29.40F
6HR MIN TEMP:  59; 6HR MAX TEMP:  63; 6HR PCP:  0.31;

GROSSE ILE     CLOUDY    62  58  87 S20G26    29.47F
6HR MIN TEMP:  61; 6HR MAX TEMP:  64; 6HR PCP:  0.22;

HILLSDALE      LGT RAIN  54  52  94 W18G29    29.43R
HOWELL         CLOUDY    59  57  94 S12G17    29.40F FOG
6HR MIN TEMP:  59; 6HR MAX TEMP:  62; 6HR PCP:  0.34;


CITY           SKY/WX    TMP DP  RH WIND       PRES   REMARKS
JACKSON        RAIN      56  54  93 W13       29.41F FOG
6HR MIN TEMP:  59; 6HR MAX TEMP:  63; 6HR PCP:  0.11;

LAMBERTVILLE   CLOUDY    62  57  84 S12G22    29.48F
6HR MIN TEMP:  62; 6HR MAX TEMP:  65;

LANSING        RAIN      53  51  93 NW17G26   29.41F FOG
6HR MIN TEMP:  53; 6HR MAX TEMP:  61; 6HR PCP:  1.10;

LAPEER         RAIN      62  60  93 S23G31    29.43F
6HR MIN TEMP:  61; 6HR MAX TEMP:  64; 6HR PCP:  0.21;

MASON          RAIN      60  58  92 S7        29.38F
MONROE         CLOUDY    62  56  81 S17       29.46F
6HR MIN TEMP:  62; 6HR MAX TEMP:  64; 6HR PCP:  0.40;

MT. CLEMENS    LGT RAIN  61  61 100 S21G31    29.45F
6HR MIN TEMP:  61; 6HR MAX TEMP:  65; 6HR PCP:  0.36;

PONTIAC        LGT RAIN  59  58  96 S16G28    29.43F
6HR MIN TEMP:  59; 6HR MAX TEMP:  63; 6HR PCP:  0.44;

PORT HOPE        N/A     61  59  93 SE26G32   29.44F
6HR MIN TEMP:  60; 6HR MAX TEMP:  64; 6HR PCP:  0.34;

PORT HURON     CLOUDY    64  59  82 S20G32    29.47F
TRI CITIES     LGT RAIN  61  61 100 E8        29.38F FOG
6HR MIN TEMP:  58; 6HR MAX TEMP:  61; 6HR PCP:  1.25;

MIDLAND        HVY RAIN  54  54 100 N12       29.39F
TROY           CLOUDY    60  58  92 S14G20    29.48F
SAGINAW HB     DRIZZLE   61  59  94 E10       29.37F
$$
MIZ043>046-050>051-056>058-064>065-071>073-077>080-240100-
SOUTHWEST LOWER MICHIGAN

CITY           SKY/WX    TMP DP  RH WIND       PRES   REMARKS
BATTLE CREEK   RAIN      53  51  93 NW20G29   29.48F
6HR MIN TEMP:  53; 6HR MAX TEMP:  60; 6HR PCP:  1.01;

BENTON HARBOR  CLOUDY    55  49  80 NW9       29.61R
6HR MIN TEMP:  54; 6HR MAX TEMP:  56; 6HR PCP:  0.79;

BIG RAPIDS     MIX PCPN  50  48  93 NW13      29.52F
6HR MIN TEMP:  50; 6HR MAX TEMP:  51; 6HR PCP:  0.97;

COLDWATER      RAIN      53  53 100 W17G24    29.49R
6HR MIN TEMP:  53; 6HR MAX TEMP:  62;

FREMONT        RAIN      51  51 100 NW12      29.56F
HOLLAND        RAIN      53  50  89 NW10G20   29.58S
6HR MIN TEMP:  53; 6HR MAX TEMP:  53; 6HR PCP:  1.01;

GRAND RAPIDS   LGT RAIN  52  52 100 NW17G26   29.50F
6HR MIN TEMP:  52; 6HR MAX TEMP:  54; 6HR PCP:  1.49;

IONIA          RAIN      52  51  97 NW16      29.45F
6HR MIN TEMP:  52; 6HR MAX TEMP:  58; 6HR PCP:  1.48;

KALAMAZOO      RAIN      53  49  86 NW18G29   29.52F
6HR MIN TEMP:  53; 6HR MAX TEMP:  58; 6HR PCP:  0.87;

LUDINGTON      LGT RAIN  49  47  93 N7        29.60S
6HR MIN TEMP:  49; 6HR MAX TEMP:  51; 6HR PCP:  0.50;

MARSHALL       RAIN      52  51  98 W9G18     29.44S
6HR MIN TEMP:  52; 6HR MAX TEMP:  61; 6HR PCP:  0.72;

MOUNT PLEASANT HVY RAIN  53  51  94 NW13      29.44F
6HR MIN TEMP:  53; 6HR MAX TEMP:  54; 6HR PCP:  2.03;

MUSKEGON       RAIN      52  50  93 NW13      29.58F
6HR MIN TEMP:  52; 6HR MAX TEMP:  53; 6HR PCP:  0.92;

SOUTH HAVEN    LGT RAIN  55  53  92 NW13G22   29.58F
$$
MIZ016>042-240100-
NORTHERN LOWER MICHIGAN

CITY           SKY/WX    TMP DP  RH WIND       PRES   REMARKS
ALPENA         RAIN      53  53 100 N16       29.53F FOG
6HR MIN TEMP:  53; 6HR MAX TEMP:  54; 6HR PCP:  1.57;

BEAVER ISLAND  LGT RAIN  50  48  92 CALM      29.62F
6HR MIN TEMP:  50; 6HR MAX TEMP:  55;

BELLAIRE       MIX PCPN  49  47  93 N7        29.59F
6HR MIN TEMP:  49; 6HR MAX TEMP:  51;

CADILLAC       HVY RAIN  48  47  99 N10G16    29.55F
CHARLEVOIX     RAIN      50  50 100 N10       29.64F
FRANKFORT      RAIN      50  48  93 N3        29.61F
GAYLORD        LGT RAIN  46  44  93 VRB5      29.55F FOG
6HR MIN TEMP:  46; 6HR MAX TEMP:  49; 6HR PCP:  0.39;

GRAYLING       HVY RAIN  48  46  91 NW13      29.53F
6HR MIN TEMP:  47; 6HR MAX TEMP:  50;

HARBOR SPRINGS RAIN      48  47  95 N5        29.61S
HOUGHTON LAKE  HVY RAIN  50  48  93 N9        29.51F FOG
6HR MIN TEMP:  49; 6HR MAX TEMP:  50; 6HR PCP:  1.64;

MANISTEE       RAIN      50  47  89 N6        29.61F
OSCODA         RAIN      60  59  98 SE8       29.45F
6HR MIN TEMP:  55; 6HR MAX TEMP:  60; 6HR PCP:  1.15;

PELLSTON       LGT RAIN  50  48  93 N7        29.61F
6HR MIN TEMP:  49; 6HR MAX TEMP:  52; 6HR PCP:  0.39;

ROGERS CITY    HVY RAIN  53  52  97 N10       29.56F
TRAVERSE CITY  LGT RAIN  51  48  89 N10G20    29.57F FOG
6HR MIN TEMP:  51; 6HR MAX TEMP:  53; 6HR PCP:  0.60;

$$
MIZ007>008-015-240100-
EASTERN UPPER MICHIGAN

CITY           SKY/WX    TMP DP  RH WIND       PRES   REMARKS
KINROSS        LGT RAIN  48  48 100 N7        29.61F
6HR MIN TEMP:  49; 6HR MAX TEMP:  51;

MACKINAC ISLAN LGT RAIN  51  51 100 N14G22    29.59F
6HR MIN TEMP:  50; 6HR MAX TEMP:  51; 6HR PCP:  0.32;

NEWBERRY       CLOUDY    48  47  97 N3        29.64F
6HR MIN TEMP:  48; 6HR MAX TEMP:  56;

S. S. MARIE    LGT RAIN  51  49  92 N7        29.61F
6HR MIN TEMP:  51; 6HR MAX TEMP:  54; 6HR PCP:  0.25;

MUNISING         N/A     49  47  93 CALM      29.65F
6HR MIN TEMP:  48; 6HR MAX TEMP:  56;

$$
MIZ004>006-011>014-085-240100-
CENTRAL UPPER MICHIGAN

CITY           SKY/WX    TMP DP  RH WIND       PRES   REMARKS
MANISTIQUE     CLOUDY    48  43  81 CALM      29.63F
6HR MIN TEMP:  48; 6HR MAX TEMP:  54;

ESCANABA       CLOUDY    48  46  93 N3        29.64F
6HR MIN TEMP:  47; 6HR MAX TEMP:  52;

MENOMINEE      CLOUDY    49  47  93 E3        29.65F
6HR MIN TEMP:  49; 6HR MAX TEMP:  52;

SAWYER-GWINN   PTCLDY    46  43  87 W5        29.66F
$$
MIZ001>003-009>011-084-240100-
WESTERN UPPER MICHIGAN

CITY           SKY/WX    TMP DP  RH WIND       PRES   REMARKS
IRON MOUNTAIN  MOCLDY    46  40  79 NW3       29.64F
6HR MIN TEMP:  46; 6HR MAX TEMP:  53;

HOUGHTON       CLOUDY    51  41  68 NW6       29.66S
6HR MIN TEMP:  51; 6HR MAX TEMP:  61;

COPPER HARBOR    N/A     51  46  83 SW3       29.67R
6HR MIN TEMP:  51; 6HR MAX TEMP:  58;

IRONWOOD       MOCLDY    53  44  71 W8        29.68S
6HR MIN TEMP:  53; 6HR MAX TEMP:  61;

$$

ABBREVIATIONS USED IN REMARKS
   TC - TEMPERATURE IN CELSIUS
  WCI - WIND CHILL INDEX
   HX - HEAT INDEX
  VSB - VISIBILITY





USA.gov is the U.S. government's official web portal to all federal, state and local government web resources and services.